Weather reports worldwide

Advertisment
Belgrad, Serbia (13274): temperature & dewpoint: 09.12.2018 23:00:00 - 15.12.2018 23:00:00 (CET)Belgrad, Serbia (13274): wind speed: 09.12.2018 23:00:00 - 15.12.2018 23:00:00 (CET)Belgrad, Serbia (13274): wind direction: 09.12.2018 23:00:00 - 15.12.2018 23:00:00 (CET)Belgrad, Serbia (13274): reduced air pressure: 09.12.2018 23:00:00 - 15.12.2018 23:00:00 (CET)Belgrad, Serbia (13274): visibility: 09.12.2018 23:00:00 - 15.12.2018 23:00:00 (CET)
Date & Time tt [°C] td [°C] ff [km/h] ff [kn] dd ppp [hPa] vv [km]
15.12.2018 23:00:00 - - - - - - -
15.12.2018 22:00:00 -0,6 -1,2 7 4 W 1019,5 2,0
15.12.2018 21:00:00 - - - - - - -
15.12.2018 20:00:00 - - - - - - -
15.12.2018 19:00:00 -0,8 -1,2 4 2 WSW 1019,5 1,0
15.12.2018 18:00:00 - - - - - - -
15.12.2018 17:00:00 - - - - - - -
15.12.2018 16:00:00 -0,2 -0,6 4 2 WSW 1018,7 1,0
15.12.2018 15:00:00 - - - - - - -
15.12.2018 14:00:00 - - - - - - -
15.12.2018 13:00:00 0,1 -0,2 4 2 SSW 1018,4 1,0
15.12.2018 12:00:00 - - - - - - -
15.12.2018 11:00:00 - - - - - - -
15.12.2018 10:00:00 -0,1 -0,6 4 2 S 1019,1 2,0
15.12.2018 09:00:00 - - - - - - -
15.12.2018 08:00:00 - - - - - - -
15.12.2018 07:00:00 -0,2 -0,6 4 2 S 1017,6 2,0
15.12.2018 06:00:00 - - - - - - -
15.12.2018 05:00:00 - - - - - - -
15.12.2018 04:00:00 - - - - - - -
15.12.2018 03:00:00 - - - - - - -
15.12.2018 02:00:00 - - - - - - -
15.12.2018 01:00:00 0,0 -0,6 14 8 ESE 1017,0 2,0
15.12.2018 00:00:00 - - - - - - -
14.12.2018 23:00:00 - - - - - - -
14.12.2018 22:00:00 -0,1 -0,6 14 8 E 1017,9 1,0
14.12.2018 21:00:00 - - - - - - -
14.12.2018 20:00:00 - - - - - - -
14.12.2018 19:00:00 0,0 -0,9 14 8 E 1017,8 1,0
14.12.2018 18:00:00 - - - - - - -
14.12.2018 17:00:00 - - - - - - -
14.12.2018 16:00:00 0,6 -0,2 14 8 E 1018,2 1,5
14.12.2018 15:00:00 - - - - - - -
14.12.2018 14:00:00 - - - - - - -
14.12.2018 13:00:00 0,9 0,1 7 4 NE 1018,2 3,0
14.12.2018 12:00:00 - - - - - - -
14.12.2018 11:00:00 - - - - - - -
14.12.2018 10:00:00 0,3 -1,9 4 2 NE 1019,5 4,0
14.12.2018 09:00:00 - - - - - - -
14.12.2018 08:00:00 - - - - - - -
14.12.2018 07:00:00 -0,2 -1,9 4 2 E 1018,8 10
14.12.2018 06:00:00 - - - - - - -
14.12.2018 05:00:00 - - - - - - -
14.12.2018 04:00:00 -0,3 -1,5 4 2 NE 1018,8 15
14.12.2018 03:00:00 - - - - - - -
14.12.2018 02:00:00 - - - - - - -
14.12.2018 01:00:00 -0,4 -1,2 11 6 NE 1019,4 15
14.12.2018 00:00:00 - - - - - - -
13.12.2018 23:00:00 - - - - - - -
13.12.2018 22:00:00 1,6 -0,9 7 4 NE 1019,9 10
13.12.2018 21:00:00 - - - - - - -
13.12.2018 20:00:00 - - - - - - -
13.12.2018 19:00:00 2,4 -1,2 7 4 ENE 1019,9 10
13.12.2018 18:00:00 - - - - - - -
13.12.2018 17:00:00 - - - - - - -
13.12.2018 16:00:00 3,4 -1,5 7 4 NE 1019,9 10
13.12.2018 15:00:00 - - - - - - -
13.12.2018 14:00:00 - - - - - - -
13.12.2018 13:00:00 5,2 -2,2 7 4 E 1020,4 15
13.12.2018 12:00:00 - - - - - - -
13.12.2018 11:00:00 - - - - - - -
13.12.2018 10:00:00 3,2 -0,2 7 4 SE 1021,7 10
13.12.2018 09:00:00 - - - - - - -
13.12.2018 08:00:00 - - - - - - -
13.12.2018 07:00:00 1,5 -0,2 0 0 N 1021,5 10
13.12.2018 06:00:00 - - - - - - -
13.12.2018 05:00:00 - - - - - - -
13.12.2018 04:00:00 2,3 0,1 4 2 SSE 1021,7 20
13.12.2018 03:00:00 - - - - - - -
13.12.2018 02:00:00 - - - - - - -
13.12.2018 01:00:00 3,0 -0,6 4 2 E 1021,7 20
13.12.2018 00:00:00 - - - - - - -
12.12.2018 23:00:00 - - - - - - -
12.12.2018 22:00:00 2,9 0,4 4 2 ENE 1021,7 20
12.12.2018 21:00:00 - - - - - - -
12.12.2018 20:00:00 - - - - - - -
12.12.2018 19:00:00 4,3 0,9 4 2 WNW 1021,0 20
12.12.2018 18:00:00 - - - - - - -
12.12.2018 17:00:00 - - - - - - -
12.12.2018 16:00:00 4,8 0,9 4 2 NW 1019,7 15
12.12.2018 15:00:00 - - - - - - -
12.12.2018 14:00:00 - - - - - - -
12.12.2018 13:00:00 5,0 1,2 11 6 W 1019,1 15
12.12.2018 12:00:00 - - - - - - -
12.12.2018 11:00:00 - - - - - - -
12.12.2018 10:00:00 4,4 -0,6 7 4 WSW 1019,6 10
12.12.2018 09:00:00 - - - - - - -
12.12.2018 08:00:00 - - - - - - -
12.12.2018 07:00:00 2,2 0,1 7 4 WSW 1018,9 10
12.12.2018 06:00:00 - - - - - - -
12.12.2018 05:00:00 - - - - - - -
12.12.2018 04:00:00 - - - - - - -
12.12.2018 03:00:00 - - - - - - -
12.12.2018 02:00:00 - - - - - - -
12.12.2018 01:00:00 1,9 0,6 4 2 SSW 1018,8 1,9
12.12.2018 00:00:00 - - - - - - -
11.12.2018 23:00:00 - - - - - - -
11.12.2018 22:00:00 2,2 0,6 7 4 W 1019,0 10
11.12.2018 21:00:00 - - - - - - -
11.12.2018 20:00:00 - - - - - - -
11.12.2018 19:00:00 2,7 0,9 7 4 WSW 1018,6 15
11.12.2018 18:00:00 - - - - - - -
11.12.2018 17:00:00 - - - - - - -
11.12.2018 16:00:00 4,8 0,1 7 4 W 1017,4 20
11.12.2018 15:00:00 - - - - - - -
11.12.2018 14:00:00 - - - - - - -
11.12.2018 13:00:00 5,0 -0,6 11 6 W 1017,0 20
11.12.2018 12:00:00 - - - - - - -
11.12.2018 11:00:00 - - - - - - -
11.12.2018 10:00:00 3,2 -1,5 11 6 W 1017,6 20
11.12.2018 09:00:00 - - - - - - -
11.12.2018 08:00:00 - - - - - - -
11.12.2018 07:00:00 0,2 -2,2 4 2 WSW 1016,8 20
11.12.2018 06:00:00 - - - - - - -
11.12.2018 05:00:00 - - - - - - -
11.12.2018 04:00:00 1,0 -1,2 11 6 W 1015,8 20
11.12.2018 03:00:00 - - - - - - -
11.12.2018 02:00:00 - - - - - - -
11.12.2018 01:00:00 2,5 -0,9 7 4 W 1015,7 20
11.12.2018 00:00:00 - - - - - - -
10.12.2018 23:00:00 - - - - - - -
10.12.2018 22:00:00 3,8 -0,2 7 4 W 1015,3 20
10.12.2018 21:00:00 - - - - - - -
10.12.2018 20:00:00 - - - - - - -
10.12.2018 19:00:00 5,3 0,6 7 4 WNW 1014,8 20
10.12.2018 18:00:00 - - - - - - -
10.12.2018 17:00:00 - - - - - - -
10.12.2018 16:00:00 7,3 1,8 7 4 NNW 1013,7 20
10.12.2018 15:00:00 - - - - - - -
10.12.2018 14:00:00 - - - - - - -
10.12.2018 13:00:00 8,8 4,0 11 6 NW 1012,6 15
10.12.2018 12:00:00 - - - - - - -
10.12.2018 11:00:00 - - - - - - -
10.12.2018 10:00:00 6,1 4,7 7 4 W 1012,2 20
10.12.2018 09:00:00 - - - - - - -
10.12.2018 08:00:00 - - - - - - -
10.12.2018 07:00:00 5,4 4,5 7 4 W 1010,2 20
10.12.2018 06:00:00 - - - - - - -
10.12.2018 05:00:00 - - - - - - -
10.12.2018 04:00:00 5,5 4,5 11 6 WSW 1008,1 20
10.12.2018 03:00:00 - - - - - - -
10.12.2018 02:00:00 - - - - - - -
10.12.2018 01:00:00 6,8 5,8 4 2 SW 1007,9 20
10.12.2018 00:00:00 - - - - - - -
09.12.2018 23:00:00 - - - - - - -

tt = temperature
td = dewpoint
ff = wind speed
dd = wind direction
ppp = reduced air pressure
vv = visibility

Next stations